Tracking 22458 objects as of 2-Mar-2021
HD Live streaming from Space Station
objects crossing your sky now

ARIANE 3 DEB

Track ARIANE 3 DEB now!
10-day predictions


NORAD ID: 27740
Int'l Code: 1984-114E
Perigee: 280.8 km
Apogee: 4,755.6 km
Inclination: 6.8 °
Period: 139.0 minutes
Semi major axis: 8889 km
RCS: 18.1115 m2 (large)
Launch date: November 10, 1984
Source: France (FR)
Launch site: FRENCH GUIANA (FRGUI)

Note: This is SATELLITE DEBRIS
aabbcc
Your satellite tracking list
Your tracking list is empty




NASA's NSSDC Master Catalog

Two Line Element Set (TLE):
1 27740U 84114E   21060.74310580  .00034250 -59223-5  10778-2 0  9991
2 27740   6.7514 258.6715 2516968 184.6316 291.0476 10.35879029858133
Source of the keplerian elements: AFSPC